Find Kosmos-1323

NORAD ID: 12978 Int'l Des: 1981-116 Owner: GUKOS Country: SU operational
LEOCIRCULAR

Live-Position

3D-Globus wird geladen...

Über Kosmos-1323

Beschreibung wird geladen...

Nächste Überflüge

Passes for default location (London). Set your location on the main map for personalized predictions.

Höhenverlauf

Loading altitude history...

Zweizeiliger Elementsatz

1 12978U 81116D 26107.31911264 -.00000027 00000-0 -99509-4 0 9994
2 12978 73.9794 92.7721 0090364 314.7675 109.7454 12.29207178991571
Epoch: 17. Apr. 2026 • Age: 12 hours

Aktueller Status

Höhe 1532.9 km
Geschwindigkeit 7.11 km/s
Subsatellitenpunkt 25.37°N, 33.46°W
Startdatum 28. Nov. 1981
Alter 44.3 years
Typ other

Technische Details

Klassifizierung Payload
Masse 60.00 kg
Trockenmasse 60.00 kg
Gesamtmasse 60.00 kg
Länge 0.80 m
Durchmesser 0.80 m
Spannweite 0.80 m
Form Poly
Hersteller NPOPM
Bus-Typ Strela-1 11F625
Phasenstatus In Orbit
Besitzer/Staat GUKOS/SU

Most Searched